Time,TemperatureF,DewpointF,PressureIn,WindDirection,WindDirectionDegrees,WindSpeedMPH,WindSpeedGustMPH,Humidity,HourlyPrecipIn,Conditions,Clouds,dailyrainin,SoftwareType,DateUTC
2017-05-26 00:00:00,70.2,-99.9,29.79,North,0,0.0,0.0,55,0.00,,,0.00,Weather View 32 v70,2017-05-26 05:00:00,
2017-05-26 00:05:00,70.2,-99.9,29.80,North,0,0.0,0.0,55,0.00,,,0.00,Weather View 32 v70,2017-05-26 05:05:00,
2017-05-26 00:10:00,70.2,-99.9,29.80,North,0,0.0,0.0,55,0.00,,,0.00,Weather View 32 v70,2017-05-26 05:10:00,
2017-05-26 00:18:00,70.2,-99.9,29.80,North,0,0.0,0.0,55,0.00,,,0.00,Weather View 32 v70,2017-05-26 05:18:00,
2017-05-26 00:24:00,70.0,-99.9,29.80,North,0,0.0,0.0,55,0.00,,,0.00,Weather View 32 v70,2017-05-26 05:24:00,
2017-05-26 00:30:00,69.8,-99.9,29.80,North,0,0.0,0.0,55,0.00,,,0.00,Weather View 32 v70,2017-05-26 05:30:00,
2017-05-26 00:35:00,69.8,-99.9,29.80,North,0,0.0,0.0,56,0.00,,,0.00,Weather View 32 v70,2017-05-26 05:35:00,
2017-05-26 00:40:00,69.6,-99.9,29.78,North,0,0.0,0.0,56,0.00,,,0.00,Weather View 32 v70,2017-05-26 05:40:00,
2017-05-26 00:49:00,69.4,-99.9,29.78,North,0,0.0,0.0,56,0.00,,,0.00,Weather View 32 v70,2017-05-26 05:49:00,
2017-05-26 00:54:00,69.3,-99.9,29.78,North,0,0.0,0.0,57,0.00,,,0.00,Weather View 32 v70,2017-05-26 05:54:00,
2017-05-26 01:00:00,69.3,-99.9,29.78,North,0,0.0,0.0,57,0.00,,,0.00,Weather View 32 v70,2017-05-26 06:00:00,
2017-05-26 01:05:00,69.3,-99.9,29.78,North,0,0.0,0.0,57,0.00,,,0.00,Weather View 32 v70,2017-05-26 06:05:00,
2017-05-26 01:14:00,69.3,-99.9,29.78,North,0,0.0,0.0,57,0.00,,,0.00,Weather View 32 v70,2017-05-26 06:14:00,
2017-05-26 01:19:00,69.3,-99.9,29.78,North,0,0.0,0.0,57,0.00,,,0.00,Weather View 32 v70,2017-05-26 06:19:00,
2017-05-26 01:25:00,69.1,-99.9,29.78,North,0,0.0,0.0,57,0.00,,,0.00,Weather View 32 v70,2017-05-26 06:25:00,
2017-05-26 01:30:00,69.3,-99.9,29.78,North,0,0.0,0.0,57,0.00,,,0.00,Weather View 32 v70,2017-05-26 06:30:00,
2017-05-26 01:39:00,69.3,-99.9,29.77,North,0,0.0,0.0,58,0.00,,,0.00,Weather View 32 v70,2017-05-26 06:39:00,
2017-05-26 01:44:00,69.3,-99.9,29.77,North,0,0.0,0.0,58,0.00,,,0.00,Weather View 32 v70,2017-05-26 06:44:00,
2017-05-26 01:49:00,69.1,-99.9,29.77,North,0,0.0,0.0,58,0.00,,,0.00,Weather View 32 v70,2017-05-26 06:49:00,
2017-05-26 01:55:00,69.3,-99.9,29.77,North,0,0.0,0.0,59,0.00,,,0.00,Weather View 32 v70,2017-05-26 06:55:00,
2017-05-26 02:00:00,69.1,-99.9,29.78,North,0,0.0,0.0,59,0.00,,,0.00,Weather View 32 v70,2017-05-26 07:00:00,
2017-05-26 02:05:00,68.9,-99.9,29.78,North,0,0.0,0.0,59,0.00,,,0.00,Weather View 32 v70,2017-05-26 07:05:00,
2017-05-26 02:14:00,68.4,-99.9,29.78,North,0,0.0,0.0,60,0.00,,,0.00,Weather View 32 v70,2017-05-26 07:14:00,
2017-05-26 02:21:00,68.4,-99.9,29.78,North,0,0.0,0.0,61,0.00,,,0.00,Weather View 32 v70,2017-05-26 07:21:00,
2017-05-26 02:30:00,68.2,-99.9,29.78,North,0,0.0,0.0,61,0.00,,,0.00,Weather View 32 v70,2017-05-26 07:30:00,
2017-05-26 02:39:00,68.0,-99.9,29.77,North,0,0.0,0.0,61,0.00,,,0.00,Weather View 32 v70,2017-05-26 07:39:00,
2017-05-26 02:50:00,67.8,-99.9,29.77,North,0,0.0,0.0,62,0.00,,,0.00,Weather View 32 v70,2017-05-26 07:50:00,
2017-05-26 02:55:00,67.6,-99.9,29.77,North,0,0.0,0.0,62,0.00,,,0.00,Weather View 32 v70,2017-05-26 07:55:00,
2017-05-26 03:00:00,67.8,-99.9,29.77,North,0,0.0,0.0,62,0.00,,,0.00,Weather View 32 v70,2017-05-26 08:00:00,
2017-05-26 03:09:00,67.8,-99.9,29.77,North,0,0.0,0.0,62,0.00,,,0.00,Weather View 32 v70,2017-05-26 08:09:00,
2017-05-26 03:14:00,67.8,-99.9,29.77,North,0,0.0,0.0,62,0.00,,,0.00,Weather View 32 v70,2017-05-26 08:14:00,
2017-05-26 03:20:00,67.8,-99.9,29.77,North,0,0.0,0.0,62,0.00,,,0.00,Weather View 32 v70,2017-05-26 08:20:00,
2017-05-26 03:25:00,67.5,-99.9,29.78,North,0,0.0,0.0,62,0.00,,,0.00,Weather View 32 v70,2017-05-26 08:25:00,
2017-05-26 03:30:00,67.5,-99.9,29.78,North,0,0.0,0.0,63,0.00,,,0.00,Weather View 32 v70,2017-05-26 08:30:00,
2017-05-26 03:39:00,67.3,-99.9,29.76,North,0,0.0,0.0,63,0.00,,,0.00,Weather View 32 v70,2017-05-26 08:39:00,
2017-05-26 03:44:00,67.5,-99.9,29.76,North,0,0.0,0.0,63,0.00,,,0.00,Weather View 32 v70,2017-05-26 08:44:00,
2017-05-26 03:50:00,67.3,-99.9,29.76,North,0,0.0,0.0,63,0.00,,,0.00,Weather View 32 v70,2017-05-26 08:50:00,
2017-05-26 03:55:00,67.1,-99.9,29.76,North,0,0.0,0.0,63,0.00,,,0.00,Weather View 32 v70,2017-05-26 08:55:00,
2017-05-26 04:04:00,67.1,-99.9,29.77,North,0,0.0,0.0,63,0.00,,,0.00,Weather View 32 v70,2017-05-26 09:04:00,
2017-05-26 04:15:00,67.5,-99.9,29.77,North,0,0.0,0.0,64,0.00,,,0.00,Weather View 32 v70,2017-05-26 09:15:00,
2017-05-26 04:20:00,67.5,-99.9,29.77,North,0,0.0,0.0,64,0.00,,,0.00,Weather View 32 v70,2017-05-26 09:20:00,
2017-05-26 04:25:00,67.5,-99.9,29.77,North,0,0.0,0.0,64,0.00,,,0.00,Weather View 32 v70,2017-05-26 09:25:00,
2017-05-26 04:34:00,67.5,-99.9,29.77,North,0,0.0,0.0,64,0.00,,,0.00,Weather View 32 v70,2017-05-26 09:34:00,
2017-05-26 04:39:00,67.3,-99.9,29.77,North,0,0.0,0.0,64,0.00,,,0.00,Weather View 32 v70,2017-05-26 09:39:00,
2017-05-26 04:45:00,67.1,-99.9,29.76,North,0,0.0,0.0,64,0.00,,,0.00,Weather View 32 v70,2017-05-26 09:45:00,
2017-05-26 04:50:00,67.1,-99.9,29.76,North,0,0.0,0.0,64,0.00,,,0.00,Weather View 32 v70,2017-05-26 09:50:00,
2017-05-26 04:55:00,67.1,-99.9,29.76,North,0,0.0,0.0,65,0.00,,,0.00,Weather View 32 v70,2017-05-26 09:55:00,
2017-05-26 05:04:00,66.7,-99.9,29.75,North,0,0.0,0.0,65,0.00,,,0.00,Weather View 32 v70,2017-05-26 10:04:00,
2017-05-26 05:09:00,66.7,-99.9,29.75,North,0,0.0,0.0,66,0.00,,,0.00,Weather View 32 v70,2017-05-26 10:09:00,
2017-05-26 05:15:00,66.7,-99.9,29.75,North,0,0.0,0.0,66,0.00,,,0.00,Weather View 32 v70,2017-05-26 10:15:00,
2017-05-26 05:20:00,66.7,-99.9,29.76,North,0,0.0,0.0,66,0.00,,,0.00,Weather View 32 v70,2017-05-26 10:20:00,
2017-05-26 05:25:00,66.6,-99.9,29.76,North,0,0.0,0.0,66,0.00,,,0.00,Weather View 32 v70,2017-05-26 10:25:00,
2017-05-26 05:34:00,66.4,-99.9,29.76,North,0,0.0,0.0,67,0.00,,,0.00,Weather View 32 v70,2017-05-26 10:34:00,
2017-05-26 05:40:00,66.4,-99.9,29.76,North,0,0.0,0.0,67,0.00,,,0.00,Weather View 32 v70,2017-05-26 10:40:00,
2017-05-26 05:45:00,66.0,-99.9,29.76,North,0,0.0,0.0,68,0.00,,,0.00,Weather View 32 v70,2017-05-26 10:45:00,
2017-05-26 05:50:00,66.4,-99.9,29.76,North,0,0.0,0.0,67,0.00,,,0.00,Weather View 32 v70,2017-05-26 10:50:00,
2017-05-26 06:04:00,65.8,-99.9,29.75,North,0,0.0,0.0,68,0.00,,,0.00,Weather View 32 v70,2017-05-26 11:04:00,
2017-05-26 06:10:00,65.8,-99.9,29.75,North,0,0.0,0.0,68,0.00,,,0.00,Weather View 32 v70,2017-05-26 11:10:00,
2017-05-26 06:15:00,65.8,-99.9,29.75,North,0,0.0,0.0,68,0.00,,,0.00,Weather View 32 v70,2017-05-26 11:15:00,
2017-05-26 06:20:00,66.0,-99.9,29.77,North,0,0.0,0.0,68,0.00,,,0.00,Weather View 32 v70,2017-05-26 11:20:00,
2017-05-26 06:27:00,65.8,-99.9,29.77,North,0,0.0,0.0,68,0.00,,,0.00,Weather View 32 v70,2017-05-26 11:27:00,
2017-05-26 06:34:00,66.0,-99.9,29.77,North,0,0.0,0.0,68,0.00,,,0.00,Weather View 32 v70,2017-05-26 11:34:00,
2017-05-26 06:40:00,66.4,-99.9,29.77,North,0,0.0,0.0,69,0.00,,,0.00,Weather View 32 v70,2017-05-26 11:40:00,
2017-05-26 06:45:00,66.4,-99.9,29.79,North,0,0.0,0.0,69,0.00,,,0.00,Weather View 32 v70,2017-05-26 11:45:00,
2017-05-26 06:54:00,66.6,-99.9,29.79,North,0,0.0,0.0,69,0.00,,,0.00,Weather View 32 v70,2017-05-26 11:54:00,
2017-05-26 06:59:00,66.6,-99.9,29.80,North,0,0.0,0.0,68,0.00,,,0.00,Weather View 32 v70,2017-05-26 11:59:00,
2017-05-26 07:05:00,66.7,-99.9,29.80,North,0,0.0,0.0,68,0.00,,,0.00,Weather View 32 v70,2017-05-26 12:05:00,